| time (UTC) | temp F | wind direction | speed MPH | gust MPH | rain 1hr in | rain 24hr in | rain mn in | humidity % | barometer mb |
| 20260903123404 | 83 | 338 | 0.0 | 3.0 | 0.00 | 0.00 | 0.00 | 82 | 999.9 |
| 20260903122904 | 83 | 350 | 1.0 | 5.0 | 0.00 | 0.00 | 0.00 | 81 | 1000.0 |
| 20260903122404 | 83 | 294 | 1.0 | 2.0 | 0.00 | 0.00 | 0.00 | 82 | 1000.0 |
| 20260903121905 | 83 | 349 | 2.0 | 3.0 | 0.00 | 0.00 | 0.00 | 82 | 999.9 |
| 20260903121404 | 83 | 325 | 0.0 | 2.0 | 0.00 | 0.00 | 0.00 | 81 | 999.8 |
| 20260903120903 | 83 | 351 | 1.0 | 5.0 | 0.00 | 0.00 | 0.00 | 81 | 999.9 |
| 20260903120404 | 83 | 0 | 0.0 | 2.0 | 0.00 | 0.00 | 0.00 | 81 | 999.8 |
| 20260903115904 | 83 | 305 | 0.0 | 1.0 | 0.00 | 0.00 | 0.00 | 81 | 999.8 |
| 20260903113903 | 84 | 54 | 2.0 | 5.0 | 0.00 | 0.00 | 0.00 | 80 | 999.7 |
| 20260903112404 | 84 | 16 | 1.0 | 3.0 | 0.00 | 0.00 | 0.00 | 79 | 999.6 |
| 20260903111904 | 85 | 51 | 2.0 | 5.0 | 0.00 | 0.00 | 0.00 | 79 | 999.5 |
| 20260903110903 | 85 | 332 | 0.0 | 2.0 | 0.00 | 0.00 | 0.00 | 78 | 999.4 |
| 20260903110404 | 85 | 344 | 0.0 | 1.0 | 0.00 | 0.00 | 0.00 | 77 | 999.4 |
| 20260903105904 | 85 | 306 | 0.0 | 1.0 | 0.00 | 0.00 | 0.00 | 78 | 999.3 |
| 20260903105403 | 85 | 306 | 0.0 | 1.0 | 0.00 | 0.00 | 0.00 | 77 | 999.3 |
| 20260903104904 | 85 | 354 | 1.0 | 3.0 | 0.00 | 0.00 | 0.00 | 77 | 999.3 |
| 20260903104403 | 85 | 33 | 1.0 | 3.0 | 0.00 | 0.00 | 0.00 | 77 | 999.2 |
| 20260903103904 | 85 | 2 | 0.0 | 2.0 | 0.00 | 0.00 | 0.00 | 77 | 999.2 |
| 20260903103404 | 85 | 304 | 0.0 | 1.0 | 0.00 | 0.00 | 0.00 | 77 | 999.2 |
| 20260903102903 | 85 | 341 | 0.0 | 1.0 | 0.00 | 0.00 | 0.00 | 77 | 999.1 |
| 20260903102403 | 85 | 51 | 1.0 | 3.0 | 0.00 | 0.00 | 0.00 | 77 | 999.1 |
| 20260903101404 | 85 | 6 | 0.0 | 3.0 | 0.00 | 0.00 | 0.00 | 77 | 999.0 |
| 20260903095404 | 85 | 299 | 0.0 | 2.0 | 0.00 | 0.00 | 0.00 | 76 | 998.7 |
| 20260903094404 | 86 | 35 | 0.0 | 2.0 | 0.00 | 0.00 | 0.00 | 76 | 998.6 |
| 20260903093904 | 86 | 326 | 0.0 | 0.0 | 0.00 | 0.00 | 0.00 | 76 | 998.6 |
| 20260903092904 | 86 | 277 | 0.0 | 1.0 | 0.00 | 0.00 | 0.00 | 76 | 998.5 |
| 20260903092403 | 86 | 275 | 0.0 | 1.0 | 0.00 | 0.00 | 0.00 | 76 | 998.5 |
| 20260903091903 | 86 | 304 | 0.0 | 1.0 | 0.00 | 0.00 | 0.00 | 75 | 998.4 |
| 20260903091404 | 87 | 314 | 0.0 | 1.0 | 0.00 | 0.00 | 0.00 | 75 | 998.4 |
| 20260903090904 | 87 | 312 | 0.0 | 1.0 | 0.00 | 0.00 | 0.00 | 74 | 998.4 |
| 20260903090404 | 87 | 314 | 0.0 | 2.0 | 0.00 | 0.00 | 0.00 | 74 | 998.3 |
| 20260903085904 | 87 | 306 | 0.0 | 1.0 | 0.00 | 0.00 | 0.00 | 73 | 998.3 |
| 20260903085404 | 87 | 250 | 1.0 | 2.0 | 0.00 | 0.00 | 0.00 | 73 | 998.3 |
| 20260903084904 | 87 | 263 | 0.0 | 2.0 | 0.00 | 0.00 | 0.00 | 73 | 998.1 |
| 20260903084404 | 87 | 265 | 1.0 | 3.0 | 0.00 | 0.00 | 0.00 | 73 | 998.0 |
| 20260903083904 | 88 | 277 | 0.0 | 2.0 | 0.00 | 0.00 | 0.00 | 73 | 998.0 |
| 20260903082904 | 88 | 263 | 1.0 | 5.0 | 0.00 | 0.00 | 0.00 | 71 | 998.1 |
| 20260903082403 | 88 | 279 | 1.0 | 3.0 | 0.00 | 0.00 | 0.00 | 71 | 998.0 |
| 20260903081903 | 88 | 277 | 0.0 | 1.0 | 0.00 | 0.00 | 0.00 | 72 | 998.0 |
| 20260903081403 | 87 | 242 | 0.0 | 1.0 | 0.00 | 0.00 | 0.00 | 73 | 997.9 |
| 20260903080904 | 87 | 243 | 1.0 | 3.0 | 0.00 | 0.00 | 0.00 | 73 | 997.9 |
| 20260903080404 | 87 | 230 | 1.0 | 3.0 | 0.00 | 0.00 | 0.00 | 73 | 997.9 |
| 20260903075904 | 87 | 245 | 1.0 | 5.0 | 0.00 | 0.00 | 0.00 | 74 | 998.0 |
| 20260903074404 | 87 | 259 | 1.0 | 3.0 | 0.00 | 0.00 | 0.00 | 73 | 997.9 |
| 20260903073903 | 88 | 269 | 1.0 | 5.0 | 0.00 | 0.00 | 0.00 | 73 | 997.9 |
| 20260903073404 | 88 | 268 | 1.0 | 3.0 | 0.00 | 0.00 | 0.00 | 73 | 997.9 |
| 20260903072903 | 88 | 247 | 0.0 | 3.0 | 0.00 | 0.00 | 0.00 | 73 | 998.0 |
| 20260903072404 | 88 | 226 | 0.0 | 2.0 | 0.00 | 0.00 | 0.00 | 73 | 998.0 |
| 20260903071404 | 88 | 255 | 1.0 | 3.0 | 0.00 | 0.00 | 0.00 | 72 | 998.0 |
| 20260903070904 | 89 | 265 | 1.0 | 3.0 | 0.00 | 0.00 | 0.00 | 71 | 998.0 |
| 20260903070404 | 89 | 237 | 1.0 | 3.0 | 0.00 | 0.00 | 0.00 | 71 | 998.0 |
| 20260903065904 | 89 | 260 | 1.0 | 3.0 | 0.00 | 0.00 | 0.00 | 71 | 998.0 |
| 20260903064904 | 88 | 259 | 0.0 | 6.0 | 0.00 | 0.00 | 0.00 | 72 | 997.9 |
| 20260903064404 | 88 | 197 | 1.0 | 3.0 | 0.00 | 0.00 | 0.00 | 72 | 998.0 |
| 20260903063904 | 87 | 216 | 1.0 | 3.0 | 0.00 | 0.00 | 0.00 | 73 | 998.1 |
| 20260903063403 | 87 | 213 | 1.0 | 3.0 | 0.00 | 0.00 | 0.00 | 73 | 998.1 |
| 20260903062903 | 87 | 286 | 0.0 | 5.0 | 0.00 | 0.00 | 0.00 | 73 | 998.3 |
| 20260903062404 | 87 | 247 | 1.0 | 5.0 | 0.00 | 0.00 | 0.00 | 73 | 998.3 |
| 20260903061404 | 87 | 249 | 1.0 | 3.0 | 0.00 | 0.00 | 0.00 | 74 | 998.4 |
| 20260903060904 | 87 | 262 | 1.0 | 5.0 | 0.00 | 0.00 | 0.00 | 74 | 998.4 |
| 20260903060403 | 87 | 266 | 1.0 | 3.0 | 0.00 | 0.00 | 0.00 | 73 | 998.5 |
| 20260903055904 | 86 | 254 | 1.0 | 3.0 | 0.00 | 0.00 | 0.00 | 74 | 998.5 |
| 20260903055404 | 86 | 254 | 2.0 | 3.0 | 0.00 | 0.00 | 0.00 | 74 | 998.5 |
| 20260903054904 | 86 | 230 | 2.0 | 7.0 | 0.00 | 0.00 | 0.00 | 74 | 998.6 |
| 20260903054404 | 86 | 226 | 1.0 | 3.0 | 0.00 | 0.00 | 0.00 | 74 | 998.5 |
| 20260903053904 | 86 | 224 | 1.0 | 5.0 | 0.00 | 0.00 | 0.00 | 74 | 998.6 |
| 20260903053404 | 86 | 252 | 0.0 | 3.0 | 0.00 | 0.00 | 0.00 | 75 | 998.5 |
| 20260903052904 | 86 | 224 | 1.0 | 5.0 | 0.00 | 0.00 | 0.00 | 74 | 998.6 |
| 20260903052404 | 86 | 241 | 1.0 | 5.0 | 0.00 | 0.00 | 0.00 | 74 | 998.6 |
| 20260903051904 | 86 | 223 | 1.0 | 3.0 | 0.00 | 0.00 | 0.00 | 74 | 998.6 |
| 20260903051403 | 87 | 284 | 1.0 | 3.0 | 0.00 | 0.00 | 0.00 | 74 | 998.7 |
| 20260903050904 | 86 | 293 | 1.0 | 3.0 | 0.00 | 0.00 | 0.00 | 74 | 998.7 |
| 20260903045904 | 87 | 269 | 0.0 | 5.0 | 0.00 | 0.00 | 0.00 | 74 | 998.7 |
| 20260903045404 | 87 | 163 | 1.0 | 3.0 | 0.00 | 0.00 | 0.00 | 73 | 998.7 |
| 20260903044904 | 87 | 253 | 0.0 | 3.0 | 0.00 | 0.00 | 0.00 | 73 | 998.8 |
| 20260903044404 | 87 | 248 | 0.0 | 1.0 | 0.00 | 0.00 | 0.00 | 74 | 998.8 |
| 20260903042904 | 87 | 251 | 2.0 | 3.0 | 0.00 | 0.00 | 0.00 | 73 | 998.9 |
| 20260903042403 | 87 | 263 | 1.0 | 5.0 | 0.00 | 0.00 | 0.00 | 73 | 998.8 |
| 20260903041904 | 88 | 247 | 1.0 | 3.0 | 0.00 | 0.00 | 0.00 | 72 | 998.9 |
| 20260903041404 | 88 | 267 | 1.0 | 3.0 | 0.00 | 0.00 | 0.00 | 71 | 998.9 |
| 20260903040904 | 88 | 245 | 1.0 | 6.0 | 0.00 | 0.00 | 0.00 | 71 | 998.9 |
| 20260903040403 | 88 | 300 | 1.0 | 7.0 | 0.00 | 0.00 | 0.00 | 71 | 998.9 |
| 20260903035904 | 88 | 256 | 1.0 | 3.0 | 0.00 | 0.00 | 0.00 | 71 | 998.9 |
| 20260903035403 | 88 | 257 | 2.0 | 3.0 | 0.00 | 0.00 | 0.00 | 72 | 999.0 |
| 20260903034904 | 87 | 243 | 0.0 | 5.0 | 0.00 | 0.00 | 0.00 | 73 | 999.0 |
| 20260903034404 | 87 | 249 | 1.0 | 7.0 | 0.00 | 0.00 | 0.00 | 73 | 999.1 |
| 20260903033904 | 86 | 244 | 1.0 | 3.0 | 0.00 | 0.00 | 0.00 | 75 | 999.2 |
| 20260903033404 | 86 | 327 | 2.0 | 7.0 | 0.00 | 0.00 | 0.00 | 75 | 999.2 |
| 20260903032904 | 85 | 250 | 1.0 | 5.0 | 0.00 | 0.00 | 0.00 | 76 | 999.3 |
| 20260903032404 | 85 | 238 | 2.0 | 5.0 | 0.00 | 0.00 | 0.00 | 75 | 999.3 |
| 20260903031904 | 85 | 237 | 2.0 | 5.0 | 0.00 | 0.00 | 0.00 | 75 | 999.3 |
| 20260903031404 | 86 | 246 | 2.0 | 5.0 | 0.00 | 0.00 | 0.00 | 74 | 999.3 |
| 20260903030904 | 86 | 273 | 0.0 | 2.0 | 0.00 | 0.00 | 0.00 | 74 | 999.3 |
| 20260903030404 | 86 | 267 | 1.0 | 2.0 | 0.00 | 0.00 | 0.00 | 74 | 999.3 |
| 20260903025404 | 86 | 261 | 0.0 | 2.0 | 0.00 | 0.00 | 0.00 | 74 | 999.3 |
| 20260903024403 | 85 | 264 | 0.0 | 1.0 | 0.00 | 0.00 | 0.00 | 75 | 999.4 |
| 20260903023903 | 85 | 234 | 0.0 | 2.0 | 0.00 | 0.00 | 0.00 | 75 | 999.3 |
| 20260903023404 | 85 | 254 | 0.0 | 3.0 | 0.00 | 0.00 | 0.00 | 74 | 999.4 |
| 20260903022404 | 86 | 310 | 0.0 | 1.0 | 0.00 | 0.00 | 0.00 | 73 | 999.3 |
| 20260903021904 | 85 | 274 | 0.0 | 1.0 | 0.00 | 0.00 | 0.00 | 74 | 999.4 |
| 20260903021404 | 85 | 312 | 0.0 | 2.0 | 0.00 | 0.00 | 0.00 | 74 | 999.4 |
| 20260903020904 | 85 | 310 | 1.0 | 3.0 | 0.00 | 0.00 | 0.00 | 75 | 999.4 |
| 20260903020404 | 85 | 263 | 0.0 | 0.0 | 0.00 | 0.00 | 0.00 | 75 | 999.4 |
| 20260903015904 | 85 | 279 | 0.0 | 1.0 | 0.00 | 0.00 | 0.00 | 75 | 999.3 |
| 20260903015404 | 84 | 279 | 0.0 | 0.0 | 0.00 | 0.00 | 0.00 | 76 | 999.5 |
| 20260903014904 | 84 | 279 | 0.0 | 1.0 | 0.00 | 0.00 | 0.00 | 76 | 999.4 |
| 20260903014404 | 84 | 13 | 0.0 | 1.0 | 0.00 | 0.00 | 0.00 | 75 | 999.4 |
| 20260903013403 | 84 | 256 | 0.0 | 1.0 | 0.00 | 0.00 | 0.00 | 76 | 999.4 |
| 20260903012905 | 83 | 283 | 0.0 | 1.0 | 0.00 | 0.00 | 0.00 | 76 | 999.4 |
| 20260903012405 | 83 | 278 | 0.0 | 2.0 | 0.00 | 0.00 | 0.00 | 76 | 999.4 |
| 20260903010404 | 83 | 266 | 0.0 | 2.0 | 0.00 | 0.00 | 0.00 | 77 | 999.4 |
| 20260903005903 | 82 | 258 | 0.0 | 3.0 | 0.00 | 0.00 | 0.00 | 77 | 999.4 |
| 20260903005403 | 83 | 313 | 1.0 | 2.0 | 0.00 | 0.00 | 0.00 | 77 | 999.5 |
| 20260903004904 | 82 | 271 | 0.0 | 1.0 | 0.00 | 0.00 | 0.00 | 78 | 999.4 |
| 20260903004403 | 82 | 266 | 0.0 | 3.0 | 0.00 | 0.00 | 0.00 | 78 | 999.4 |
| 20260903003904 | 82 | 260 | 0.0 | 2.0 | 0.00 | 0.00 | 0.00 | 78 | 999.5 |
| 20260903003403 | 82 | 266 | 0.0 | 2.0 | 0.00 | 0.00 | 0.00 | 78 | 999.5 |
| 20260903002904 | 82 | 270 | 1.0 | 2.0 | 0.00 | 0.00 | 0.00 | 78 | 999.5 |
| 20260903002405 | 81 | 280 | 0.0 | 1.0 | 0.00 | 0.00 | 0.00 | 79 | 999.6 |
| 20260903001906 | 81 | 274 | 0.0 | 2.0 | 0.00 | 0.00 | 0.00 | 78 | 999.5 |
| 20260903001405 | 81 | 304 | 0.0 | 1.0 | 0.00 | 0.00 | 0.00 | 79 | 999.5 |
| 20260903000904 | 81 | 356 | 0.0 | 2.0 | 0.00 | 0.00 | 0.00 | 78 | 999.5 |
| 20260903000404 | 81 | 289 | 0.0 | 2.0 | 0.00 | 0.00 | 0.00 | 79 | 999.5 |
| 20260902235905 | 81 | 269 | 1.0 | 2.0 | 0.00 | 0.00 | 0.00 | 79 | 999.5 |
| 20260902235403 | 81 | 298 | 1.0 | 2.0 | 0.00 | 0.00 | 0.00 | 79 | 999.5 |
| 20260902234903 | 81 | 276 | 0.0 | 1.0 | 0.00 | 0.00 | 0.00 | 79 | 999.5 |
| 20260902234404 | 81 | 283 | 0.0 | 0.0 | 0.00 | 0.00 | 0.00 | 79 | 999.4 |
| 20260902233906 | 81 | 275 | 0.0 | 1.0 | 0.00 | 0.00 | 0.00 | 79 | 999.3 |
| 20260902233404 | 81 | 267 | 0.0 | 1.0 | 0.00 | 0.00 | 0.00 | 79 | 999.3 |
| 20260902232904 | 81 | 272 | 0.0 | 0.0 | 0.00 | 0.00 | 0.00 | 79 | 999.2 |
| 20260902231904 | 81 | 267 | 0.0 | 1.0 | 0.00 | 0.00 | 0.00 | 80 | 999.1 |
| 20260902231404 | 80 | 264 | 0.0 | 2.0 | 0.00 | 0.00 | 0.00 | 80 | 999.1 |
| 20260902230905 | 80 | 246 | 0.0 | 1.0 | 0.00 | 0.00 | 0.00 | 80 | 999.1 |
| 20260902230404 | 80 | 276 | 0.0 | 2.0 | 0.00 | 0.00 | 0.00 | 80 | 998.9 |
| 20260902224904 | 80 | 289 | 0.0 | 0.0 | 0.00 | 0.00 | 0.00 | 80 | 998.9 |
| 20260902224404 | 80 | 290 | 0.0 | 1.0 | 0.00 | 0.00 | 0.00 | 80 | 999.0 |
| 20260902223404 | 80 | 283 | 0.0 | 0.0 | 0.00 | 0.00 | 0.00 | 81 | 998.9 |
| 20260902221903 | 80 | 281 | 0.0 | 0.0 | 0.00 | 0.00 | 0.00 | 80 | 998.9 |
| 20260902221403 | 80 | 281 | 0.0 | 1.0 | 0.00 | 0.00 | 0.00 | 80 | 998.9 |
| 20260902220904 | 80 | 281 | 0.0 | 0.0 | 0.00 | 0.00 | 0.00 | 80 | 999.0 |
| 20260902220404 | 80 | 280 | 0.0 | 1.0 | 0.00 | 0.00 | 0.00 | 81 | 998.9 |
| 20260902215904 | 80 | 281 | 0.0 | 0.0 | 0.00 | 0.00 | 0.00 | 80 | 998.8 |
| 20260902214903 | 80 | 290 | 0.0 | 1.0 | 0.00 | 0.00 | 0.00 | 80 | 998.7 |
| 20260902214403 | 80 | 260 | 0.0 | 2.0 | 0.00 | 0.00 | 0.00 | 80 | 998.8 |
| 20260902213904 | 80 | 260 | 0.0 | 0.0 | 0.00 | 0.00 | 0.00 | 80 | 998.8 |
| 20260902213404 | 80 | 256 | 0.0 | 2.0 | 0.00 | 0.00 | 0.00 | 80 | 998.8 |
| 20260902212904 | 80 | 228 | 1.0 | 3.0 | 0.00 | 0.00 | 0.00 | 80 | 998.7 |
| 20260902212403 | 80 | 267 | 1.0 | 2.0 | 0.00 | 0.00 | 0.00 | 80 | 998.5 |
| 20260902211904 | 80 | 269 | 0.0 | 0.0 | 0.00 | 0.00 | 0.00 | 80 | 998.6 |
| 20260902211404 | 80 | 269 | 0.0 | 2.0 | 0.00 | 0.00 | 0.00 | 80 | 998.6 |
| 20260902210904 | 80 | 266 | 0.0 | 1.0 | 0.00 | 0.00 | 0.00 | 80 | 998.6 |
| 20260902210404 | 80 | 264 | 0.0 | 2.0 | 0.00 | 0.00 | 0.00 | 80 | 998.5 |
| 20260902205904 | 80 | 211 | 1.0 | 3.0 | 0.00 | 0.00 | 0.00 | 80 | 998.4 |
| 20260902205404 | 80 | 273 | 0.0 | 2.0 | 0.00 | 0.00 | 0.00 | 80 | 998.5 |
| 20260902204907 | 80 | 70 | 1.0 | 3.0 | 0.00 | 0.00 | 0.00 | 80 | 998.5 |
| 20260902204405 | 80 | 302 | 0.0 | 1.0 | 0.00 | 0.00 | 0.00 | 80 | 998.5 |
| 20260902203905 | 80 | 306 | 0.0 | 1.0 | 0.00 | 0.00 | 0.00 | 80 | 998.4 |
| 20260902203404 | 80 | 323 | 0.0 | 1.0 | 0.00 | 0.00 | 0.00 | 80 | 998.4 |
| 20260902202405 | 80 | 297 | 0.0 | 1.0 | 0.00 | 0.00 | 0.00 | 80 | 998.5 |
| 20260902201904 | 80 | 304 | 0.0 | 0.0 | 0.00 | 0.00 | 0.00 | 80 | 998.5 |
| 20260902201404 | 80 | 245 | 0.0 | 3.0 | 0.00 | 0.00 | 0.00 | 80 | 998.5 |
| 20260902200404 | 80 | 281 | 0.0 | 3.0 | 0.00 | 0.00 | 0.00 | 80 | 998.6 |
| 20260902195904 | 80 | 38 | 1.0 | 3.0 | 0.00 | 0.00 | 0.00 | 80 | 998.5 |
| 20260902195404 | 80 | 291 | 0.0 | 1.0 | 0.00 | 0.00 | 0.00 | 80 | 998.4 |
| 20260902194904 | 81 | 313 | 0.0 | 2.0 | 0.00 | 0.00 | 0.00 | 80 | 998.5 |
| 20260902194404 | 81 | 266 | 0.0 | 0.0 | 0.00 | 0.00 | 0.00 | 80 | 998.6 |
| 20260902193904 | 80 | 264 | 0.0 | 2.0 | 0.00 | 0.00 | 0.00 | 80 | 998.7 |
| 20260902193403 | 81 | 267 | 0.0 | 2.0 | 0.00 | 0.00 | 0.00 | 79 | 998.7 |
| 20260902192903 | 81 | 265 | 0.0 | 1.0 | 0.00 | 0.00 | 0.00 | 80 | 998.8 |
| 20260902192404 | 81 | 265 | 0.0 | 0.0 | 0.00 | 0.00 | 0.00 | 80 | 998.8 |
| 20260902191904 | 81 | 255 | 0.0 | 3.0 | 0.00 | 0.00 | 0.00 | 80 | 998.9 |
| 20260902191403 | 81 | 295 | 0.0 | 0.0 | 0.00 | 0.00 | 0.00 | 80 | 999.0 |
| 20260902190904 | 81 | 297 | 0.0 | 1.0 | 0.00 | 0.00 | 0.00 | 80 | 999.1 |
| 20260902190403 | 81 | 300 | 0.0 | 0.0 | 0.00 | 0.00 | 0.00 | 80 | 999.1 |
| 20260902185904 | 80 | 219 | 0.0 | 3.0 | 0.00 | 0.00 | 0.00 | 80 | 999.1 |
| 20260902185404 | 81 | 36 | 0.0 | 2.0 | 0.00 | 0.00 | 0.00 | 80 | 999.0 |
| 20260902184404 | 81 | 290 | 0.0 | 0.0 | 0.00 | 0.00 | 0.00 | 80 | 999.1 |
| 20260902183904 | 81 | 286 | 0.0 | 0.0 | 0.00 | 0.00 | 0.00 | 80 | 999.0 |
| 20260902183404 | 81 | 283 | 0.0 | 1.0 | 0.00 | 0.00 | 0.00 | 80 | 999.1 |
| 20260902182904 | 81 | 252 | 1.0 | 3.0 | 0.00 | 0.00 | 0.00 | 79 | 999.0 |
| 20260902182406 | 81 | 254 | 2.0 | 5.0 | 0.00 | 0.00 | 0.00 | 79 | 999.2 |
| 20260902181904 | 82 | 275 | 0.0 | 3.0 | 0.00 | 0.00 | 0.00 | 79 | 999.2 |
| 20260902181403 | 82 | 274 | 0.0 | 0.0 | 0.00 | 0.00 | 0.00 | 79 | 999.4 |
| 20260902180904 | 82 | 273 | 0.0 | 1.0 | 0.00 | 0.00 | 0.00 | 79 | 999.4 |
| 20260902180404 | 82 | 280 | 0.0 | 0.0 | 0.00 | 0.00 | 0.00 | 79 | 999.5 |
| 20260902175904 | 82 | 214 | 0.0 | 2.0 | 0.00 | 0.00 | 0.00 | 79 | 999.6 |
| 20260902175404 | 82 | 297 | 0.0 | 0.0 | 0.00 | 0.00 | 0.00 | 79 | 999.7 |
| 20260902174404 | 81 | 238 | 0.0 | 3.0 | 0.00 | 0.00 | 0.00 | 79 | 999.8 |
| 20260902173404 | 82 | 299 | 0.0 | 1.0 | 0.00 | 0.00 | 0.00 | 79 | 999.9 |
| 20260902172904 | 82 | 267 | 0.0 | 2.0 | 0.00 | 0.00 | 0.00 | 79 | 999.8 |
| 20260902172404 | 82 | 269 | 0.0 | 0.0 | 0.00 | 0.00 | 0.00 | 79 | 999.7 |
| 20260902171404 | 82 | 251 | 0.0 | 1.0 | 0.00 | 0.00 | 0.00 | 78 | 999.8 |
| 20260902170904 | 82 | 318 | 0.0 | 1.0 | 0.00 | 0.00 | 0.00 | 79 | 999.9 |
| 20260902170404 | 82 | 278 | 0.0 | 1.0 | 0.00 | 0.00 | 0.00 | 78 | 999.9 |
| 20260902165904 | 82 | 286 | 0.0 | 2.0 | 0.00 | 0.00 | 0.00 | 78 | 1000.0 |
| 20260902165404 | 82 | 316 | 0.0 | 0.0 | 0.00 | 0.00 | 0.00 | 79 | 1000.0 |
| 20260902164904 | 82 | 315 | 0.0 | 1.0 | 0.00 | 0.00 | 0.00 | 78 | 1000.0 |
| 20260902164404 | 82 | 273 | 0.0 | 2.0 | 0.00 | 0.00 | 0.00 | 78 | 999.9 |
| 20260902163905 | 82 | 275 | 0.0 | 2.0 | 0.00 | 0.00 | 0.00 | 78 | 999.9 |
| 20260902162906 | 82 | 260 | 1.0 | 3.0 | 0.00 | 0.00 | 0.00 | 78 | 999.8 |
| 20260902162403 | 82 | 266 | 0.0 | 0.0 | 0.00 | 0.00 | 0.00 | 79 | 999.8 |
| 20260902161904 | 82 | 254 | 0.0 | 3.0 | 0.00 | 0.00 | 0.00 | 78 | 999.7 |
| 20260902161404 | 82 | 263 | 0.0 | 1.0 | 0.00 | 0.00 | 0.00 | 79 | 999.7 |
| 20260902160904 | 82 | 259 | 0.0 | 0.0 | 0.00 | 0.00 | 0.00 | 79 | 999.8 |
| 20260902160404 | 82 | 288 | 0.0 | 1.0 | 0.00 | 0.00 | 0.00 | 79 | 999.8 |
| 20260902155904 | 82 | 292 | 0.0 | 2.0 | 0.00 | 0.00 | 0.00 | 79 | 999.8 |
| 20260902155404 | 82 | 284 | 0.0 | 2.0 | 0.00 | 0.00 | 0.00 | 78 | 999.8 |
| 20260902154904 | 83 | 253 | 1.0 | 2.0 | 0.00 | 0.00 | 0.00 | 78 | 1000.0 |
| 20260902154404 | 83 | 307 | 0.0 | 1.0 | 0.00 | 0.01 | 0.00 | 79 | 999.9 |
| 20260902152904 | 83 | 267 | 0.0 | 2.0 | 0.00 | 0.01 | 0.00 | 78 | 1000.0 |
| 20260902152403 | 83 | 45 | 0.0 | 2.0 | 0.00 | 0.01 | 0.00 | 79 | 999.9 |
| 20260902151904 | 83 | 20 | 0.0 | 2.0 | 0.00 | 0.02 | 0.00 | 78 | 1000.0 |
| 20260902151404 | 83 | 236 | 0.0 | 2.0 | 0.00 | 0.03 | 0.00 | 78 | 999.9 |
| 20260902150907 | 83 | 310 | 0.0 | 0.0 | 0.00 | 0.03 | 0.00 | 79 | 999.9 |
| 20260902150404 | 83 | 334 | 0.0 | 3.0 | 0.00 | 0.03 | 0.00 | 79 | 999.9 |
| 20260902145905 | 83 | 271 | 0.0 | 3.0 | 0.00 | 0.03 | 0.00 | 78 | 1000.0 |
| 20260902144904 | 83 | 62 | 0.0 | 2.0 | 0.00 | 0.03 | 0.00 | 79 | 1000.2 |
| 20260902144404 | 83 | 66 | 1.0 | 2.0 | 0.00 | 0.03 | 0.00 | 78 | 1000.1 |
| 20260902143904 | 83 | 326 | 0.0 | 1.0 | 0.00 | 0.04 | 0.00 | 79 | 1000.2 |
| 20260902143405 | 83 | 318 | 0.0 | 2.0 | 0.00 | 0.04 | 0.00 | 79 | 1000.1 |
| 20260902142904 | 83 | 292 | 0.0 | 1.0 | 0.00 | 0.05 | 0.00 | 79 | 1000.1 |
| 20260902142404 | 83 | 286 | 0.0 | 0.0 | 0.00 | 0.06 | 0.00 | 79 | 1000.0 |
| 20260902141903 | 83 | 328 | 0.0 | 3.0 | 0.00 | 0.07 | 0.00 | 79 | 1000.0 |
| 20260902141404 | 83 | 227 | 1.0 | 2.0 | 0.00 | 0.08 | 0.00 | 79 | 1000.0 |
| 20260902140904 | 83 | 341 | 0.0 | 2.0 | 0.00 | 0.09 | 0.00 | 79 | 999.9 |
| 20260902140404 | 83 | 318 | 0.0 | 1.0 | 0.00 | 0.10 | 0.00 | 79 | 999.9 |
| 20260902135903 | 83 | 273 | 0.0 | 1.0 | 0.00 | 0.11 | 0.00 | 79 | 999.9 |
| 20260902135404 | 83 | 329 | 1.0 | 3.0 | 0.00 | 0.13 | 0.00 | 79 | 999.9 |
| 20260902134904 | 83 | 213 | 1.0 | 3.0 | 0.00 | 0.15 | 0.00 | 79 | 999.8 |
| 20260902134404 | 83 | 55 | 1.0 | 3.0 | 0.00 | 0.17 | 0.00 | 79 | 999.8 |
| 20260902133903 | 83 | 248 | 0.0 | 2.0 | 0.00 | 0.20 | 0.00 | 79 | 999.8 |
| 20260902133404 | 83 | 243 | 0.0 | 3.0 | 0.00 | 0.24 | 0.00 | 79 | 999.8 |
| 20260902132403 | 83 | 237 | 1.0 | 5.0 | 0.00 | 0.35 | 0.00 | 80 | 999.8 |
| 20260902131904 | 83 | 11 | 1.0 | 12.0 | 0.00 | 0.38 | 0.00 | 80 | 999.8 |
| 20260902131404 | 83 | 358 | 0.0 | 1.0 | 0.00 | 0.39 | 0.00 | 80 | 999.7 |
| 20260902130404 | 83 | 50 | 1.0 | 3.0 | 0.00 | 0.41 | 0.00 | 80 | 999.7 |
| 20260902125904 | 83 | 28 | 2.0 | 6.0 | 0.00 | 0.42 | 0.00 | 80 | 999.6 |
| 20260902125404 | 83 | 50 | 2.0 | 3.0 | 0.00 | 0.42 | 0.00 | 80 | 999.5 |
| 20260902124904 | 84 | 327 | 0.0 | 3.0 | 0.00 | 0.42 | 0.00 | 80 | 999.4 |
| 20260902124404 | 84 | 40 | 2.0 | 3.0 | 0.00 | 0.42 | 0.00 | 80 | 999.4 |
| 20260902123904 | 84 | 308 | 2.0 | 6.0 | 0.00 | 0.42 | 0.00 | 80 | 999.3 |